Regional Weather Roundup
Issued by NWS Cleveland, OH

Home | Current Version | Previous Version | Text Only | Print | Product List | Glossary Off
Versions: 1 2 3 4 5 6 7 8 9 10 11 12 13 14 15 16 17 18 19 20 21 22 23 24 25 26 27 28 29 30 31 32 33 34 35 36 37 38 39 40 41 42 43 44 45 46 47 48 49 50

000
ASUS41 KCLE 281102
RWRCLE
OHIO REGIONAL WEATHER ROUNDUP
NATIONAL WEATHER SERVICE CLEVELAND, OH
700 AM EDT THU MAY 28 2015

NOTE: "FAIR" INDICATES FEW OR NO CLOUDS BELOW 12,000 FEET WITH NO
SIGNIFICANT WEATHER AND/OR OBSTRUCTIONS TO VISIBILITY.

OHZ001>008-015>018-024>027-034-035-043-044-281200-
   NORTHWEST OHIO

CITY           SKY/WX    TMP DP  RH WIND       PRES   REMARKS
DEFIANCE       CLEAR     58  55  90 N6        30.22R
FINDLAY        CLEAR     62  58  86 NE5       30.20R
TOLEDO EXPRESS CLEAR     58  55  90 N3        30.21R
TOLEDO EXEC    CLEAR     60  56  86 N5        30.22R
LIMA           PTCLDY    60  58  92 N5        30.21R
$$

OHZ009>014-019>023-028>033-038-089-281200-
   NORTHEAST OHIO

CITY           SKY/WX    TMP DP  RH WIND       PRES   REMARKS
CLE-HOPKINS    PTCLDY    61  56  83 NE5       30.24R
CLE-LAKEFRONT  CLEAR     61  57  87 NE6       30.21R
CUY CO. ARPT   MOCLDY    61  59  94 NE7       30.22
LORAIN-ELYRIA  CLEAR     61  59  93 E5        30.22R
ASHTABULA      SUNNY     59  56  89 CALM      30.23R
AKRON-CANTON   MOCLDY    64  61  90 N8        30.22R FOG
WOOSTER        PTCLDY    63  61  93 N6        30.23R FOG
MANSFIELD      CLEAR     61  61 100 N7        30.23R FOG
YOUNGSTOWN     PTSUNNY   63  60  90 N3        30.22R
$$

OHZ042-051>053-060>062-070>072-077>081-281200-
  SOUTHWEST OHIO

CITY           SKY/WX    TMP DP  RH WIND       PRES   REMARKS
CINC-COVINGTON FOG       64  63  96 CALM      30.20R VSB 1/4
CINC-LUNKEN    CLOUDY    63  62  97 CALM      30.21R
HAMILTON       MOCLDY    60  59  96 CALM      30.20S
DAYTON         PTCLDY    64  62  93 CALM      30.21R FOG
WRIGHT-PAT AFB PTCLDY    63  62  96 E2        30.20R
DAYTON GENERAL MOCLDY    62  61  96 S3        30.20R FOG
WILMINGTON     MOCLDY    61  59  93 S3        30.21R FOG
$$

OHZ036-037-039>041-045>050-054>059-063>069-073>076-082>088-281200-
  CENTRAL AND SOUTHEAST OHIO

CITY           SKY/WX    TMP DP  RH WIND       PRES   REMARKS
COLUMBUS       CLOUDY    63  60  90 SE3       30.20R
OSU AIRPORT    PTCLDY    64  61  90 CALM      30.20R
BOLTON FIELD   NOT AVBL
RICKENBACK AFB NOT AVBL
NEWARK         CLOUDY    60  58  92 CALM      30.20R
MARION         FOG       61  60  97 NE6       30.21R VSB 3/4
LANCASTER      MOCLDY    62  59  90 CALM      30.21R
ZANESVILLE     NOT AVBL
NEW PHILLY     MOCLDY    63  59  87 CALM      30.22R
$$



USA.gov is the U.S. government's official web portal to all federal, state and local government web resources and services.